Weather History for Kirksville, MO

Change the Weather History Date:

Sunday, May 5, 2013

  Actual Average Record
Temperature  
Mean Temperature 56 °F 58 °F  
Max Temperature 68 °F 69 °F 88 °F (1943)
Min Temperature 43 °F 48 °F 32 °F (1944)
Degree Days  
Heating Degree Days 9 8  
Month to date heating degree days 86 41  
Since 1 July heating degree days 5932 5731  
Cooling Degree Days 0 1  
Month to date cooling degree days 0 4  
Year to date cooling degree days 10 11  
Growing Degree Days 5 (Base 50)    
Moisture  
Dew Point 50 °F    
Average Humidity 84    
Maximum Humidity 100    
Minimum Humidity 67    
Precipitation  
Precipitation T in 0.18 in 1.47 in (1991)
Month to date precipitation 1.11 0.94  
Year to date precipitation 17.08 10.13  
Sea Level Pressure  
Sea Level Pressure 30.03 in    
Wind  
Wind Speed 9 mph (North)    
Max Wind Speed 17 mph    
Max Gust Speed 25 mph    
Visibility 6 miles    
Events Fog    
T = Trace of Precipitation, MM = Missing Value Source: NWS Daily Summary

Daily Weather History Graph

Daily Weather History Graph

Search for Another Location

Airport:

Trip Planner

Search our weather history database for the weather conditions in past years. The results will help you decide how hot, cold, wet, or windy it might be!

Date:

Astronomy

May. 05, 2013 Rise Set
Actual Time 6:04 AM CDT 8:09 PM CDT
Civil Twilight 5:35 AM CDT 8:39 PM CDT
Nautical Twilight 4:58 AM CDT 9:15 PM CDT
Astronomical Twilight 4:19 AM CDT 9:55 PM CDT
Moon 3:35 AM CDT (5/5) 4:09 PM CDT (5/5)
Length of Visible Light 15h 04m
Length of Day
14h 04m
Waning Crescent, 18% of the Moon is Illuminated
May 5
Waning Crescent
May 9
New
May 17
First Quarter
May 24
Full
May 31
Last Quarter

Hourly Weather History & Observations

Time (CDT) Temp. Windchill Dew Point Humidity Pressure Visibility Wind Dir Wind Speed Gust Speed Precip Events Conditions
12:09 AM 48.2 °F - 46.4 °F 93% 30.04 in 8.0 mi Calm Calm - N/A   Overcast
12:32 AM 46.4 °F 45.2 °F 46.4 °F 100% 30.03 in 7.0 mi North 3.5 mph - N/A   Partly Cloudy
12:55 AM 46.9 °F - 46.9 °F 100% 30.05 in 5.0 mi NE 3.5 mph - N/A   Clear
1:30 AM 44.6 °F 43.1 °F 44.6 °F 100% 30.02 in 1.2 mi NNE 3.5 mph - N/A   Partly Cloudy
1:32 AM 44.6 °F 43.1 °F 44.6 °F 100% 30.02 in 0.5 mi North 3.5 mph - N/A Fog Fog
1:55 AM 44.1 °F 42.5 °F 44.1 °F 100% 30.04 in 0.2 mi North 3.5 mph - N/A Fog Fog
2:20 AM 46.4 °F 44.3 °F 46.4 °F 100% 30.01 in 1.0 mi NNE 4.6 mph - N/A   Mostly Cloudy
2:24 AM 46.4 °F 44.3 °F 46.4 °F 100% 30.00 in 3.0 mi North 4.6 mph - N/A   Overcast
2:32 AM 46.4 °F 43.5 °F 46.4 °F 100% 30.01 in 5.0 mi NNE 5.8 mph - N/A   Overcast
2:55 AM 48.0 °F - 48.0 °F 100% 30.03 in 6.0 mi NNE 3.5 mph - N/A   Overcast
3:55 AM 48.9 °F - 48.9 °F 100% 30.04 in 6.0 mi NE 3.5 mph - 0.00 in   Overcast
4:18 AM 48.2 °F - 48.2 °F 100% 30.02 in 5.0 mi NNE 4.6 mph - N/A   Overcast
4:42 AM 48.2 °F - 48.2 °F 100% 30.02 in 6.0 mi NNE 4.6 mph - N/A   Overcast
4:55 AM 48.9 °F - 48.9 °F 100% 30.04 in 5.0 mi NE 4.6 mph - N/A   Overcast
5:09 AM 48.2 °F - 48.2 °F 100% 30.03 in 2.5 mi Calm Calm - N/A   Overcast
5:51 AM 48.2 °F - 48.2 °F 100% 30.03 in 1.8 mi Calm Calm - N/A   Overcast
5:53 AM 48.2 °F - 48.2 °F 100% 30.03 in 2.0 mi Calm Calm - N/A   Overcast
5:55 AM 48.9 °F - 48.9 °F 100% 30.05 in 2.0 mi Calm Calm - N/A   Overcast
6:13 AM 50.0 °F - 48.2 °F 94% 30.04 in 3.0 mi NNE 8.1 mph - N/A   Overcast
6:25 AM 48.2 °F - 48.2 °F 100% 30.04 in 2.0 mi NNE 8.1 mph - N/A   Overcast
6:40 AM 48.2 °F - 48.2 °F 100% 30.05 in 3.0 mi NE 8.1 mph - N/A   Overcast
6:55 AM 50.0 °F - 48.9 °F 96% 30.07 in 4.0 mi NE 6.9 mph - N/A   Overcast
7:21 AM 50.0 °F - 48.2 °F 94% 30.05 in 4.0 mi NNE 6.9 mph - N/A   Overcast
7:55 AM 51.1 °F - 50.0 °F 96% 30.07 in 6.0 mi North 6.9 mph - N/A   Overcast
8:55 AM 51.1 °F - 48.9 °F 92% 30.08 in 10.0 mi North 5.8 mph - N/A   Overcast
9:55 AM 55.0 °F - 51.1 °F 86% 30.08 in 10.0 mi NNW 9.2 mph - N/A   Overcast
10:32 AM 55.4 °F - 51.8 °F 88% 30.07 in 10.0 mi NNW 8.1 mph - N/A   Scattered Clouds
10:55 AM 55.0 °F - 51.1 °F 86% 30.08 in 10.0 mi NW 9.2 mph - N/A   Mostly Cloudy
11:07 AM 57.2 °F - 51.8 °F 82% 30.07 in 10.0 mi NNW 8.1 mph - N/A   Scattered Clouds
11:55 AM 60.1 °F - 52.0 °F 75% 30.08 in 10.0 mi NNW 10.4 mph - N/A   Scattered Clouds
12:55 PM 60.8 °F - 53.6 °F 77% 30.04 in 10.0 mi NNW 11.5 mph - N/A   Overcast
1:55 PM 64.9 °F - 55.0 °F 70% 30.02 in 10.0 mi NNW 10.4 mph 19.6 mph N/A   Scattered Clouds
2:55 PM 64.0 °F - 53.1 °F 67% 30.01 in 10.0 mi North 13.8 mph - N/A   Overcast
3:55 PM 66.0 °F - 55.0 °F 68% 30.00 in 10.0 mi North 9.2 mph 18.4 mph N/A   Scattered Clouds
4:55 PM 64.9 °F - 55.0 °F 70% 30.00 in 10.0 mi North 13.8 mph - N/A   Partly Cloudy
5:55 PM 64.0 °F - 54.0 °F 70% 30.00 in 10.0 mi North 13.8 mph - N/A   Clear
6:55 PM 61.0 °F - 54.0 °F 78% 30.00 in 10.0 mi NNW 9.2 mph - N/A   Clear
7:55 PM 60.1 °F - 54.0 °F 80% 30.01 in 10.0 mi NNW 8.1 mph - N/A   Clear
8:55 PM 59.0 °F - 54.0 °F 83% 30.01 in 10.0 mi NNW 8.1 mph - N/A   Clear
9:55 PM 57.9 °F - 54.0 °F 87% 30.02 in 9.0 mi NNW 8.1 mph - N/A   Scattered Clouds
10:55 PM 55.9 °F - 54.0 °F 93% 30.01 in 8.0 mi NW 9.2 mph - N/A   Clear
11:55 PM 55.0 °F - 53.1 °F 93% 30.04 in 6.0 mi NNE 10.4 mph - N/A   Mostly Cloudy